SCP
-0 -0 -0 -0 -0 -0 -0 -0 -0 -0 -0 -0 -0 0 0 0 0 -0 0 0 -0 -0 -0 0 0 0 0 0 0 0 0 0 0 -0 0 -0 0 0 0 0 0 0 0 -0 -0
-0 -0 -0 -0 -0 -0 -0 -0 0 0 0 -0 -0 -0 0 0 0 0 0 -0 -0 -0 0 0 0 0 0 0 0 0 0 0 0 0 0 -0 0 0 -0 -0 -0 -0 0 -0 0
0 0 -0 -0 -0 -0 -0 -0 0 0 0 0 0 0 0 0 0 0 0 -0 -0 0 -0 0 0 0 0 0 0 0 0 0 0 0 0 0 -0 -0 -0 -0 -0 0 0 0 0
0 0 -0 -0 -0 -0 -0 -0 -0 0 0 0 0 0 0 0 0 0 -0 -0 -0 -0 -0 0 0 0 0 0 0 0 0 0 0 0 0 -0 -0 -0 -0 -0 0 0 0 0 0
-0 -0 -0 -0 0 0 0 0 0 0 0 0 0 0 0 0 0 0 -0 -0 0 -0 0 0 0 0 0 0 0 0 0 0 0 0 0 -0 -0 -0 -0 -0 0 0 0 0 0
-0 -0 -0 -0 -0 0 0 0 0 0 0 0 0 -0 0 0 0 0 0 0 0 0 0 0 0 0 0 0 0 0 0 0 0 0 0 0 -0 -0 0 0 0 0 0 0 0
-0 -0 -0 -0 -0 -0 0 0 0 0 0 0 0 -0 0 0 0 0 0 0 0 0 0 0 0 0 0 0 0 0 0 0 0 0 0 0 0 0 0 0 0 0 0 0 0
-0 -0 -0 -0 -0 -0 -0 0 0 0 0 0 0 0 0 0 0 0 0 0 0 0 0 0 0 0 0 0 0 0 0 0 0 0 0 0 0 0 0 0 0 0 0 0 0
-0 -0 -0 -0 -0 -0 -0 0 0 0 0 0 0 0 0 0 0 0 0 0 0 0 0 0 0 0 0 0 0 0 0 0 0 0 0 0 0 0 0 0 0 0 0 0 0
-0 -0 -0 -0 -0 -0 -0 -0 0 0 0 0 0 0 0 0 0 0 0 0 0 0 0 0 0 0 0 0 0 0 0 0 0 0 0 0 0 0 0 0 0 0 0 0 0
0 -0 -0 -0 -0 -0 0 0 0 0 0 0 0 0 0 0 0 0 0 0 0 0 0 0 0 0 0 0 0 0 0 0 0 0 0 0 0 0 0 0 0 0 0 0 0
0 0 0 0 0 0 0 0 0 0 0 0 0 0 0 0 0 0 0 0 0 0 0 0 0 0 0 0 0 0 0 0 0 0 0 0 0 0 0 0 0 0 0 0 0
0 0 0 0 0 0 0 0 0 0 0 0 0 0 0 0 0 0 0 0 0 0 0 0 0 0 0 0 0 0 0 0 0 0 0 0 0 0 0 0 0 0 0 0 0
0 0 0 0 0 0 0 0 0 0 0 0 0 0 0 0 0 0 0 0 0 0 0 0 0 0 0 0 0 0 0 0 0 0 0 0 0 0 0 0 0 0 0 0 0
0 0 0 0 0 0 0 0 0 0 0 0 0 0 0 0 0 0 0 0 0 0 0 0 0 0 0 0 0 0 0 0 0 0 0 0 0 0 0 0 0 0 0 0 0
0 0 0 0 0 0 0 0 0 0 0 0 0 0 0 0 0 0 0 0 0 0 0 0 0 0 0 0 0 0 0 0 0 0 0 0 0 0 0 0 0 0 0 0 0
0 0 0 0 0 0 0 0 0 0 0 0 0 0 0 0 0 0 0 0 0 0 0 0 0 0 0 0 0 0 0 0 0 0 0 0 0 0 0 0 0 0 0 0 0
0 0 0 0 0 0 0 0 0 0 0 0 0 0 0 0 0 0 0 0 0 0 0 0 0 0 0 0 0 0 0 0 0 0 0 0 0 0 0 0 0 0 0 0 0
0 0 0 0 0 0 0 0 0 0 0 0 0 0 0 0 0 0 0 0 0 0 0 0 0 0 0 0 0 0 0 0 0 0 0 0 0 0 0 0 0 0 0 0 0
0 0 0 0 0 0 0 0 0 0 0 0 0 0 0 0 0 0 0 0 0 0 0 0 0 0 0 0 0 0 0 0 0 0 0 0 0 0 0 0 0 0 0 0 0
0 0 0 0 0 0 0 0 0 0 0 0 0 0 0 0 0 0 0 0 0 0 0 0 0 0 0 0 0 0 0 0 0 0 0 0 0 0 0 0 0 0 0 0 0
0 0 0 0 0 0 0 0 0 0 0 0 0 0 0 0 0 0 0 0 0 0 0 0 0 0 0 0 0 0 0 0 0 0 0 0 0 0 0 0 0 0 0 0 0
0 0 0 0 0 0 0 0 0 0 0 0 0 0 0 0 0 0 0 0 0 0 0 0 0 0 0 0 0 0 0 0 0 0 0 0 0 0 0 0 0 0 0 0 0
0 0 0 0 0 0 0 0 0 0 0 0 0 0 0 0 0 0 0 0 0 0 0 0 0 0 0 0 0 0 0 0 0 0 0 0 0 0 0 0 0 0 0 0 0
0 0 0 0 0 0 0 0 0 0 0 0 0 0 0 0 0 0 0 0 0 0 0 0 0 0 0 0 0 0 0 0 0 0 0 0 0 0 0 0 0 0 0 0 0
0 0 0 0 0 0 0 0 0 0 0 0 0 0 0 0 0 0 0 0 0 0 0 0 0 0 0 0 0 0 0 0 0 0 0 0 0 0 0 0 0 0 0 0 0
0 0 0 0 0 0 0 0 0 0 0 0 0 0 0 0 0 0 0 0 0 0 0 0 0 0 0 0 0 0 0 0 0 0 0 0 0 0 0 0 0 0 0 0 0
Wind_Speed_500mb
23 23 19 19 15 13 11 18 23 19 15 7 29 13 8 24 30 5 2 4 12 19 17 13 24 26 21 10 8 4 8 5 9 12 4 4 6 4 4 6 8 5 3 4 9
18 17 17 18 21 20 13 14 23 20 21 15 10 24 11 7 19 28 14 6 12 16 18 22 29 25 11 8 10 11 6 9 4 4 4 4 2 4 1 3 5 8 5 2 7
17 16 16 17 20 20 18 19 20 22 20 10 16 6 13 6 7 21 13 5 9 11 18 24 24 16 13 12 13 7 6 9 4 4 3 3 3 4 5 7 10 9 8 3 4
15 15 16 18 19 21 21 21 19 20 18 17 7 9 19 3 4 17 14 8 15 11 18 19 16 10 10 9 7 12 5 5 7 1 3 2 8 8 11 6 4 5 3 2 8
15 16 17 18 20 22 22 22 20 19 17 16 9 6 3 9 11 13 19 8 13 12 14 14 14 12 11 11 9 8 7 9 10 3 4 4 10 12 23 18 9 7 9 6 8
16 17 19 20 21 22 22 22 19 18 14 10 18 7 2 4 11 12 20 20 15 13 15 9 11 19 20 8 7 8 15 11 1 7 3 5 6 6 10 28 18 12 12 11 11
14 16 17 20 21 21 22 21 18 15 12 9 7 10 11 6 12 13 17 22 22 23 28 24 17 4 12 10 12 19 7 4 2 9 3 12 9 17 19 31 25 19 17 16 15
15 16 17 18 19 20 21 20 16 16 11 7 6 2 4 8 11 11 9 16 23 27 26 24 23 23 12 24 11 8 7 2 2 17 3 3 16 6 17 31 33 28 24 20 16
15 17 19 19 19 20 22 22 16 13 8 6 5 2 3 7 12 12 9 9 15 16 16 14 12 15 10 8 9 13 3 3 9 9 7 5 14 8 14 35 39 38 33 26 24
17 18 19 20 20 19 21 20 10 8 7 5 4 1 4 8 11 10 7 6 4 8 6 6 11 9 9 10 7 7 4 5 9 10 9 9 35 26 46 41 50 51 46 37 33
20 19 19 18 17 15 16 10 5 5 13 8 9 4 8 9 8 11 1 4 7 7 9 12 12 5 5 1 3 10 4 4 6 1 10 7 20 46 37 52 56 69 70 66 57
20 21 21 19 17 15 12 3 9 5 8 9 6 5 9 13 4 17 8 1 6 6 8 11 6 6 2 3 4 4 2 6 10 2 5 11 34 31 14 18 42 55 68 64 49
20 20 21 21 14 12 11 11 6 5 5 5 8 6 6 9 10 21 14 6 12 10 9 9 4 3 1 7 4 4 1 3 5 16 1 16 16 10 6 10 15 26 39 49 47
21 21 21 21 9 16 10 11 8 7 10 8 4 4 6 3 5 17 11 5 11 9 6 11 1 4 3 5 4 3 4 4 7 12 7 9 10 16 7 17 10 13 29 48 43
23 22 18 16 13 12 10 11 8 4 8 3 4 3 6 2 1 7 14 6 7 7 6 4 5 4 4 3 2 3 3 2 3 4 7 2 4 17 8 11 12 19 29 37 39
20 21 21 15 10 11 13 12 6 12 11 4 5 3 3 4 2 2 4 10 11 8 11 5 2 2 3 3 4 4 5 6 6 4 4 2 6 13 9 10 5 7 30 33 35
20 19 17 17 13 10 9 4 10 8 7 7 4 3 2 3 4 6 3 4 7 9 2 5 2 2 2 5 4 4 9 6 10 7 9 1 2 24 7 12 9 9 16 28 33
27 24 23 18 11 11 9 9 6 4 13 1 4 4 3 4 2 1 6 2 5 9 7 8 9 3 7 4 4 4 6 9 10 4 9 5 13 13 11 9 22 23 18 21 27
35 32 29 21 15 8 3 7 15 14 9 16 5 9 10 7 3 5 6 9 14 17 16 9 7 2 4 2 2 6 2 2 10 4 5 7 15 22 13 22 29 33 27 29 27
43 35 41 33 23 11 6 12 10 8 11 5 13 8 11 7 3 6 2 7 6 3 9 10 4 2 3 4 5 6 9 6 5 3 10 10 10 15 9 6 5 14 35 34 31
44 17 24 22 21 14 8 16 12 16 14 11 13 8 9 10 11 7 9 8 5 5 10 6 7 2 5 10 14 5 3 6 6 9 9 5 12 15 14 9 16 23 39 41 38
39 8 24 30 12 6 8 14 7 10 16 8 2 7 15 14 12 6 14 12 18 23 12 10 9 7 13 1 3 3 7 10 8 11 5 5 18 8 13 14 14 29 25 28 38
21 23 31 49 10 7 4 7 12 12 11 12 15 14 8 14 1 12 9 3 26 14 12 9 4 5 13 7 9 5 9 6 8 5 13 10 15 2 5 8 19 31 30 35 39
20 8 15 44 19 10 11 10 11 23 10 15 8 10 8 11 6 9 10 9 21 17 10 17 4 11 14 11 9 7 8 11 10 7 9 18 43 44 41 30 28 46 56 57 57
37 14 24 11 14 13 17 22 20 15 15 24 6 15 17 12 10 12 8 5 4 15 13 12 13 8 9 7 5 9 10 17 26 26 17 45 31 50 45 17 28 41 57 66 63
33 15 17 9 22 44 28 36 42 11 25 17 14 29 22 20 22 27 17 10 13 10 13 2 6 6 9 4 11 15 14 23 40 27 35 53 58 63 88 77 69 62 52 48 54
78 49 28 26 13 23 32 45 39 24 27 31 46 22 28 47 14 6 10 11 20 25 20 14 12 6 12 6 6 21 28 45 32 15 34 34 55 55 40 27 41 56 58 61 60
Wind_Direction_500mb
71 71 66 67 47 32 39 57 30 14 14 339 227 229 49 46 44 48 48 21 58 49 46 113 145 148 134 106 87 81 64 137 174 146 209 318 26 37 76 149 93 93 102 15 358
51 50 45 32 24 24 23 10 10 17 7 9 21 210 278 338 26 41 45 66 76 69 79 112 123 129 91 70 40 67 90 184 177 140 176 294 272 316 177 125 136 136 132 39 2
46 31 29 15 14 15 4 350 357 5 8 23 61 36 279 283 357 17 25 126 121 96 110 117 120 109 73 53 27 44 133 160 165 171 184 212 235 285 168 228 197 185 169 139 350
29 22 17 5 7 7 1 350 346 354 359 8 323 345 30 112 62 12 26 150 157 142 144 139 136 87 72 77 41 87 74 154 148 128 199 163 297 286 222 234 188 185 194 271 340
4 8 4 360 2 359 358 349 342 353 347 3 3 355 4 67 37 26 30 65 163 160 166 165 150 120 113 112 101 88 153 116 99 89 170 273 247 243 248 220 223 228 242 266 304
353 353 353 353 355 355 353 345 344 342 338 343 20 18 338 75 32 45 50 62 129 136 143 166 143 125 105 83 73 122 121 128 113 9 259 322 273 312 261 205 215 231 247 257 277
343 342 344 346 347 346 346 342 341 351 352 338 307 321 49 95 45 58 68 74 96 100 104 108 120 102 112 96 88 115 76 348 241 342 290 318 259 233 227 194 210 227 244 255 262
336 336 337 338 338 336 336 333 326 350 336 345 320 13 99 56 47 46 94 81 98 101 96 93 95 84 62 115 53 48 59 67 67 2 257 341 271 318 202 200 215 225 238 250 260
336 333 333 332 331 335 333 331 318 322 305 345 324 185 75 24 22 42 71 102 110 102 93 88 83 82 78 66 39 13 228 276 317 44 312 49 274 275 212 213 227 234 237 243 256
337 338 335 333 331 332 330 330 312 317 309 289 18 150 74 337 9 9 56 91 141 122 75 56 57 73 38 52 225 212 192 242 262 337 352 278 269 254 252 246 244 243 238 237 254
335 335 336 331 325 329 332 329 303 273 30 76 26 9 350 331 14 2 160 62 93 76 40 23 65 106 147 331 106 102 99 274 262 42 334 236 277 280 259 249 244 243 242 245 249
330 332 334 332 330 343 356 8 58 124 79 54 36 11 12 1 336 14 16 122 82 76 339 30 89 188 266 346 104 69 150 276 276 163 6 341 291 282 261 240 243 240 238 235 233
329 331 332 333 329 349 24 53 39 27 104 29 35 13 2 7 30 358 21 34 74 61 9 128 114 128 75 35 97 49 30 4 289 325 233 316 290 318 278 271 269 248 236 225 222
331 332 333 336 333 347 22 25 9 6 71 296 335 332 345 22 25 25 28 49 36 134 88 85 1 78 76 84 44 322 78 59 335 14 288 14 280 302 323 301 263 248 215 214 223
343 339 338 345 337 349 347 351 360 50 22 205 289 305 19 137 128 11 39 74 84 106 105 186 121 110 107 99 39 152 27 56 87 72 348 8 45 271 341 285 265 240 222 219 223
343 343 340 336 335 338 338 338 9 45 256 297 266 264 167 40 35 355 89 82 115 91 46 106 106 64 114 63 84 149 129 65 52 72 9 236 136 279 219 216 233 231 226 223 223
326 331 335 332 320 319 330 330 33 137 349 270 213 13 55 1 23 37 51 70 152 79 302 10 185 99 100 147 159 119 63 328 348 3 228 348 219 246 269 241 228 213 226 223 228
303 308 312 311 300 306 316 51 107 233 222 236 121 95 192 354 238 183 118 210 222 95 93 142 319 41 359 50 140 94 145 158 230 250 279 297 237 252 219 239 258 241 254 221 215
286 288 287 286 281 271 211 61 211 205 163 153 108 78 311 360 87 357 229 216 193 177 157 132 253 160 81 79 78 154 139 149 99 64 34 241 288 294 252 262 261 245 229 235 232
277 280 277 267 251 212 88 232 217 199 142 156 178 164 198 238 140 150 161 218 198 280 356 219 71 345 73 127 75 161 153 74 6 332 294 278 277 245 294 274 250 234 236 237 229
260 264 258 226 198 183 178 226 241 212 182 171 200 163 202 187 169 207 226 292 155 112 65 124 107 266 47 207 174 141 174 61 115 160 199 297 254 219 236 244 239 242 246 248 235
227 201 218 201 177 168 169 194 192 196 196 215 196 194 186 163 180 235 220 210 173 155 173 203 147 182 215 118 20 331 218 174 134 229 226 153 267 262 231 246 249 260 267 261 254
220 212 206 190 204 213 254 246 221 169 203 176 208 200 177 183 229 192 205 210 169 153 160 205 290 25 339 360 3 215 199 200 88 79 203 155 259 172 240 264 258 257 267 278 276
212 183 176 205 212 202 155 218 225 207 192 185 177 123 135 210 234 207 234 185 186 177 159 139 119 181 195 206 132 200 220 189 148 149 184 223 273 265 270 273 271 269 276 287 291
213 232 183 194 217 209 181 177 189 196 216 195 208 210 172 185 165 218 195 133 172 196 153 139 200 168 242 210 177 214 184 186 208 218 208 267 239 266 267 259 257 282 289 290 292
224 179 179 223 179 190 204 220 221 194 156 225 212 195 193 186 186 201 158 187 194 158 159 190 204 123 291 4 212 265 199 210 222 234 256 258 274 266 276 280 273 275 275 277 288
232 243 224 186 181 183 211 214 216 185 219 217 205 178 206 223 204 7 184 227 169 158 174 156 138 111 261 10 352 287 217 211 221 198 227 245 245 270 278 268 267 273 278 278 283
Wind_Speed_850mb
23 23 19 19 15 13 11 18 23 19 15 7 29 13 8 24 30 5 2 4 12 19 17 13 24 26 21 10 8 4 8 5 9 12 4 4 6 4 4 6 8 5 3 4 9
18 17 17 18 21 20 13 14 23 20 21 15 10 24 11 7 19 28 14 6 12 16 18 22 29 25 11 8 10 11 6 9 4 4 4 4 2 4 1 3 5 8 5 2 7
17 16 16 17 20 20 18 19 20 22 20 10 16 6 13 6 7 21 13 5 9 11 18 24 24 16 13 12 13 7 6 9 4 4 3 3 3 4 5 7 10 9 8 3 4
15 15 16 18 19 21 21 21 19 20 18 17 7 9 19 3 4 17 14 8 15 11 18 19 16 10 10 9 7 12 5 5 7 1 3 2 8 8 11 6 4 5 3 2 8
15 16 17 18 20 22 22 22 20 19 17 16 9 6 3 9 11 13 19 8 13 12 14 14 14 12 11 11 9 8 7 9 10 3 4 4 10 12 23 18 9 7 9 6 8
16 17 19 20 21 22 22 22 19 18 14 10 18 7 2 4 11 12 20 20 15 13 15 9 11 19 20 8 7 8 15 11 1 7 3 5 6 6 10 28 18 12 12 11 11
14 16 17 20 21 21 22 21 18 15 12 9 7 10 11 6 12 13 17 22 22 23 28 24 17 4 12 10 12 19 7 4 2 9 3 12 9 17 19 31 25 19 17 16 15
15 16 17 18 19 20 21 20 16 16 11 7 6 2 4 8 11 11 9 16 23 27 26 24 23 23 12 24 11 8 7 2 2 17 3 3 16 6 17 31 33 28 24 20 16
15 17 19 19 19 20 22 22 16 13 8 6 5 2 3 7 12 12 9 9 15 16 16 14 12 15 10 8 9 13 3 3 9 9 7 5 14 8 14 35 39 38 33 26 24
17 18 19 20 20 19 21 20 10 8 7 5 4 1 4 8 11 10 7 6 4 8 6 6 11 9 9 10 7 7 4 5 9 10 9 9 35 26 46 41 50 51 46 37 33
20 19 19 18 17 15 16 10 5 5 13 8 9 4 8 9 8 11 1 4 7 7 9 12 12 5 5 1 3 10 4 4 6 1 10 7 20 46 37 52 56 69 70 66 57
20 21 21 19 17 15 12 3 9 5 8 9 6 5 9 13 4 17 8 1 6 6 8 11 6 6 2 3 4 4 2 6 10 2 5 11 34 31 14 18 42 55 68 64 49
20 20 21 21 14 12 11 11 6 5 5 5 8 6 6 9 10 21 14 6 12 10 9 9 4 3 1 7 4 4 1 3 5 16 1 16 16 10 6 10 15 26 39 49 47
21 21 21 21 9 16 10 11 8 7 10 8 4 4 6 3 5 17 11 5 11 9 6 11 1 4 3 5 4 3 4 4 7 12 7 9 10 16 7 17 10 13 29 48 43
23 22 18 16 13 12 10 11 8 4 8 3 4 3 6 2 1 7 14 6 7 7 6 4 5 4 4 3 2 3 3 2 3 4 7 2 4 17 8 11 12 19 29 37 39
20 21 21 15 10 11 13 12 6 12 11 4 5 3 3 4 2 2 4 10 11 8 11 5 2 2 3 3 4 4 5 6 6 4 4 2 6 13 9 10 5 7 30 33 35
20 19 17 17 13 10 9 4 10 8 7 7 4 3 2 3 4 6 3 4 7 9 2 5 2 2 2 5 4 4 9 6 10 7 9 1 2 24 7 12 9 9 16 28 33
27 24 23 18 11 11 9 9 6 4 13 1 4 4 3 4 2 1 6 2 5 9 7 8 9 3 7 4 4 4 6 9 10 4 9 5 13 13 11 9 22 23 18 21 27
35 32 29 21 15 8 3 7 15 14 9 16 5 9 10 7 3 5 6 9 14 17 16 9 7 2 4 2 2 6 2 2 10 4 5 7 15 22 13 22 29 33 27 29 27
43 35 41 33 23 11 6 12 10 8 11 5 13 8 11 7 3 6 2 7 6 3 9 10 4 2 3 4 5 6 9 6 5 3 10 10 10 15 9 6 5 14 35 34 31
44 17 24 22 21 14 8 16 12 16 14 11 13 8 9 10 11 7 9 8 5 5 10 6 7 2 5 10 14 5 3 6 6 9 9 5 12 15 14 9 16 23 39 41 38
39 8 24 30 12 6 8 14 7 10 16 8 2 7 15 14 12 6 14 12 18 23 12 10 9 7 13 1 3 3 7 10 8 11 5 5 18 8 13 14 14 29 25 28 38
21 23 31 49 10 7 4 7 12 12 11 12 15 14 8 14 1 12 9 3 26 14 12 9 4 5 13 7 9 5 9 6 8 5 13 10 15 2 5 8 19 31 30 35 39
20 8 15 44 19 10 11 10 11 23 10 15 8 10 8 11 6 9 10 9 21 17 10 17 4 11 14 11 9 7 8 11 10 7 9 18 43 44 41 30 28 46 56 57 57
37 14 24 11 14 13 17 22 20 15 15 24 6 15 17 12 10 12 8 5 4 15 13 12 13 8 9 7 5 9 10 17 26 26 17 45 31 50 45 17 28 41 57 66 63
33 15 17 9 22 44 28 36 42 11 25 17 14 29 22 20 22 27 17 10 13 10 13 2 6 6 9 4 11 15 14 23 40 27 35 53 58 63 88 77 69 62 52 48 54
78 49 28 26 13 23 32 45 39 24 27 31 46 22 28 47 14 6 10 11 20 25 20 14 12 6 12 6 6 21 28 45 32 15 34 34 55 55 40 27 41 56 58 61 60
Wind_Direction_850mb
71 71 66 67 47 32 39 57 30 14 14 339 227 229 49 46 44 48 48 21 58 49 46 113 145 148 134 106 87 81 64 137 174 146 209 318 26 37 76 149 93 93 102 15 358
51 50 45 32 24 24 23 10 10 17 7 9 21 210 278 338 26 41 45 66 76 69 79 112 123 129 91 70 40 67 90 184 177 140 176 294 272 316 177 125 136 136 132 39 2
46 31 29 15 14 15 4 350 357 5 8 23 61 36 279 283 357 17 25 126 121 96 110 117 120 109 73 53 27 44 133 160 165 171 184 212 235 285 168 228 197 185 169 139 350
29 22 17 5 7 7 1 350 346 354 359 8 323 345 30 112 62 12 26 150 157 142 144 139 136 87 72 77 41 87 74 154 148 128 199 163 297 286 222 234 188 185 194 271 340
4 8 4 360 2 359 358 349 342 353 347 3 3 355 4 67 37 26 30 65 163 160 166 165 150 120 113 112 101 88 153 116 99 89 170 273 247 243 248 220 223 228 242 266 304
353 353 353 353 355 355 353 345 344 342 338 343 20 18 338 75 32 45 50 62 129 136 143 166 143 125 105 83 73 122 121 128 113 9 259 322 273 312 261 205 215 231 247 257 277
343 342 344 346 347 346 346 342 341 351 352 338 307 321 49 95 45 58 68 74 96 100 104 108 120 102 112 96 88 115 76 348 241 342 290 318 259 233 227 194 210 227 244 255 262
336 336 337 338 338 336 336 333 326 350 336 345 320 13 99 56 47 46 94 81 98 101 96 93 95 84 62 115 53 48 59 67 67 2 257 341 271 318 202 200 215 225 238 250 260
336 333 333 332 331 335 333 331 318 322 305 345 324 185 75 24 22 42 71 102 110 102 93 88 83 82 78 66 39 13 228 276 317 44 312 49 274 275 212 213 227 234 237 243 256
337 338 335 333 331 332 330 330 312 317 309 289 18 150 74 337 9 9 56 91 141 122 75 56 57 73 38 52 225 212 192 242 262 337 352 278 269 254 252 246 244 243 238 237 254
335 335 336 331 325 329 332 329 303 273 30 76 26 9 350 331 14 2 160 62 93 76 40 23 65 106 147 331 106 102 99 274 262 42 334 236 277 280 259 249 244 243 242 245 249
330 332 334 332 330 343 356 8 58 124 79 54 36 11 12 1 336 14 16 122 82 76 339 30 89 188 266 346 104 69 150 276 276 163 6 341 291 282 261 240 243 240 238 235 233
329 331 332 333 329 349 24 53 39 27 104 29 35 13 2 7 30 358 21 34 74 61 9 128 114 128 75 35 97 49 30 4 289 325 233 316 290 318 278 271 269 248 236 225 222
331 332 333 336 333 347 22 25 9 6 71 296 335 332 345 22 25 25 28 49 36 134 88 85 1 78 76 84 44 322 78 59 335 14 288 14 280 302 323 301 263 248 215 214 223
343 339 338 345 337 349 347 351 360 50 22 205 289 305 19 137 128 11 39 74 84 106 105 186 121 110 107 99 39 152 27 56 87 72 348 8 45 271 341 285 265 240 222 219 223
343 343 340 336 335 338 338 338 9 45 256 297 266 264 167 40 35 355 89 82 115 91 46 106 106 64 114 63 84 149 129 65 52 72 9 236 136 279 219 216 233 231 226 223 223
326 331 335 332 320 319 330 330 33 137 349 270 213 13 55 1 23 37 51 70 152 79 302 10 185 99 100 147 159 119 63 328 348 3 228 348 219 246 269 241 228 213 226 223 228
303 308 312 311 300 306 316 51 107 233 222 236 121 95 192 354 238 183 118 210 222 95 93 142 319 41 359 50 140 94 145 158 230 250 279 297 237 252 219 239 258 241 254 221 215
286 288 287 286 281 271 211 61 211 205 163 153 108 78 311 360 87 357 229 216 193 177 157 132 253 160 81 79 78 154 139 149 99 64 34 241 288 294 252 262 261 245 229 235 232
277 280 277 267 251 212 88 232 217 199 142 156 178 164 198 238 140 150 161 218 198 280 356 219 71 345 73 127 75 161 153 74 6 332 294 278 277 245 294 274 250 234 236 237 229
260 264 258 226 198 183 178 226 241 212 182 171 200 163 202 187 169 207 226 292 155 112 65 124 107 266 47 207 174 141 174 61 115 160 199 297 254 219 236 244 239 242 246 248 235
227 201 218 201 177 168 169 194 192 196 196 215 196 194 186 163 180 235 220 210 173 155 173 203 147 182 215 118 20 331 218 174 134 229 226 153 267 262 231 246 249 260 267 261 254
220 212 206 190 204 213 254 246 221 169 203 176 208 200 177 183 229 192 205 210 169 153 160 205 290 25 339 360 3 215 199 200 88 79 203 155 259 172 240 264 258 257 267 278 276
212 183 176 205 212 202 155 218 225 207 192 185 177 123 135 210 234 207 234 185 186 177 159 139 119 181 195 206 132 200 220 189 148 149 184 223 273 265 270 273 271 269 276 287 291
213 232 183 194 217 209 181 177 189 196 216 195 208 210 172 185 165 218 195 133 172 196 153 139 200 168 242 210 177 214 184 186 208 218 208 267 239 266 267 259 257 282 289 290 292
224 179 179 223 179 190 204 220 221 194 156 225 212 195 193 186 186 201 158 187 194 158 159 190 204 123 291 4 212 265 199 210 222 234 256 258 274 266 276 280 273 275 275 277 288
232 243 224 186 181 183 211 214 216 185 219 217 205 178 206 223 204 7 184 227 169 158 174 156 138 111 261 10 352 287 217 211 221 198 227 245 245 270 278 268 267 273 278 278 283